WS6A-13 Weather Reports


time (UTC)temp
C
wind
direction
speed
KPH
gust
KPH
rain 1hr
cm
rain 24hr
cm
rain mn
cm
humidity
%
barometer
mb
20260903091504 23 249 0.0 0.0 0.00 0.00 0.00 91 1013.9
20260903084504 23 249 0.0 0.0 0.00 0.00 0.00 91 1013.8
20260903083003 23 249 0.0 0.0 0.00 0.00 0.00 91 1013.8
20260903081504 23 249 0.0 0.0 0.00 0.00 0.00 91 1013.8
20260903074504 24 249 0.0 0.0 0.00 0.00 0.00 90 1013.8
20260903073004 24 249 0.0 0.0 0.00 0.00 0.00 91 1013.8
20260903071503 24 249 0.0 0.0 0.00 0.00 0.00 91 1013.7
20260903061504 23 249 0.0 0.0 0.00 0.00 0.00 91 1013.8
20260903060003 23 249 0.0 0.0 0.00 0.00 0.00 90 1013.8
20260903054504 23 249 0.0 0.0 0.00 0.00 0.00 90 1013.7
20260903053004 24 249 0.0 0.0 0.00 0.00 0.00 90 1013.7
20260903051504 24 249 0.0 0.0 0.00 0.00 0.00 89 1013.6
20260903050004 24 249 0.0 0.0 0.00 0.00 0.00 89 1013.5
20260903044504 24 249 0.0 0.0 0.00 0.00 0.00 89 1013.4
20260903041504 24 249 0.0 0.0 0.00 0.00 0.00 88 1013.4
20260903040003 25 249 0.0 0.0 0.00 0.00 0.00 88 1013.3
20260903034504 25 249 0.0 0.0 0.00 0.00 0.00 88 1013.4
20260903033004 25 249 0.0 0.0 0.00 0.00 0.00 88 1013.5
20260903030004 25 249 0.0 0.0 0.00 0.00 0.00 87 1013.8
20260903024504 25 249 0.0 0.0 0.00 0.00 0.00 87 1013.8
20260903023004 25 249 0.0 0.0 0.00 0.00 0.00 87 1013.9
20260903021504 25 249 0.0 0.0 0.00 0.00 0.00 86 1013.9
20260903014504 26 249 0.0 0.0 0.00 0.00 0.00 85 1013.8
20260903013004 26 249 0.0 0.0 0.00 0.00 0.00 84 1013.7
20260903010004 26 249 0.0 0.0 0.00 0.00 0.00 83 1013.5
20260903004504 27 249 0.0 0.0 0.00 0.00 0.00 82 1013.4
20260903003004 27 249 0.0 0.0 0.00 0.00 0.00 80 1013.2
20260903000004 28 249 0.0 0.0 0.00 0.00 0.00 78 1013.2
20260902234504 29 249 0.0 0.0 0.00 0.00 0.00 78 1013.1
20260902233004 30 249 0.0 0.0 0.00 0.00 0.00 77 1013.1
20260902231504 30 249 0.0 0.0 0.00 0.00 0.00 74 1013.1
20260902230004 31 249 0.0 0.0 0.00 0.00 0.00 74 1013.2
20260902224504 31 249 0.0 0.0 0.00 0.00 0.00 72 1013.2
20260902221504 31 251 0.0 0.0 0.00 0.00 0.00 69 1013.2
20260902220004 32 251 0.0 3.2 0.00 0.00 0.00 69 1013.3
20260902214504 32 147 0.0 0.0 0.00 0.00 0.00 69 1013.4
20260902213004 32 142 0.0 0.0 0.00 0.00 0.00 68 1013.4
20260902211504 32 169 0.0 0.0 0.00 0.00 0.00 68 1013.4
20260902210004 32 79 0.0 8.0 0.00 0.00 0.00 65 1013.6
20260902204504 33 244 0.0 0.0 0.00 0.00 0.00 65 1013.7
20260902203004 33 244 0.0 0.0 0.00 0.00 0.00 61 1013.7
20260902201504 34 63 0.0 3.2 0.00 0.00 0.00 60 1013.7
20260902194504 35 252 1.6 4.8 0.00 0.00 0.00 60 1014.0
20260902193004 34 252 1.6 9.7 0.00 0.00 0.00 57 1014.3
20260902190004 33 242 0.0 3.2 0.00 0.00 0.00 65 1014.5
20260902184504 33 82 0.0 3.2 0.00 0.00 0.00 64 1014.7
20260902181504 33 89 1.6 4.8 0.00 0.00 0.00 63 1014.8
20260902180006 33 118 0.0 14.5 0.00 0.00 0.00 63 1015.0
20260902174504 33 214 1.6 9.7 0.00 0.00 0.00 65 1015.2
20260902173004 33 144 0.0 4.8 0.00 0.00 0.00 67 1015.3
20260902170004 33 147 0.0 3.2 0.00 0.00 0.00 67 1015.5
20260902164504 32 208 0.0 3.2 0.00 0.00 0.00 67 1015.6
20260902163004 32 87 0.0 4.8 0.00 0.00 0.00 68 1015.7
20260902161504 32 248 0.0 3.2 0.00 0.00 0.00 71 1015.8
20260902160006 31 243 0.0 3.2 0.00 0.00 0.00 71 1015.9
20260902154504 31 130 0.0 3.2 0.00 0.00 0.00 74 1015.9
20260902153003 30 47 0.0 0.0 0.00 0.00 0.00 75 1016.0
20260902150004 29 101 0.0 3.2 0.00 0.00 0.00 77 1016.1
20260902144504 28 115 0.0 1.6 0.00 0.00 0.00 78 1016.1
20260902143004 28 82 0.0 1.6 0.00 0.00 0.00 79 1016.1
20260902140004 26 184 0.0 1.6 0.00 0.00 0.00 84 1016.0
20260902134503 25 134 0.0 3.2 0.00 0.00 0.00 88 1016.0
20260902133004 25 134 0.0 0.0 0.00 0.00 0.00 91 1016.0
20260902131503 23 133 0.0 0.0 0.00 0.00 0.00 94 1016.0
20260902124504 23 133 0.0 0.0 0.00 0.00 0.00 95 1016.1
20260902121504 22 123 0.0 0.0 0.00 0.00 0.00 95 1015.8
20260902120004 22 123 0.0 0.0 0.00 0.00 0.00 94 1015.8
20260902114504 22 123 0.0 0.0 0.00 0.00 0.00 94 1015.6
20260902113004 22 123 0.0 0.0 0.00 0.00 0.00 94 1015.4
20260902111504 22 123 0.0 0.0 0.00 0.00 0.00 94 1015.3
20260902110007 22 123 0.0 0.0 0.00 0.00 0.00 93 1015.3
20260902104504 22 123 0.0 0.0 0.00 0.00 0.00 93 1015.4
20260902103004 22 123 0.0 0.0 0.00 0.00 0.00 93 1015.3
20260902101504 22 123 0.0 0.0 0.00 0.00 0.00 93 1015.2
20260902100004 22 123 0.0 0.0 0.00 0.00 0.00 93 1015.1
20260902094504 22 123 0.0 0.0 0.00 0.00 0.00 93 1015.1